Satellite: MET-3/5 Catalog number: 21655 Epoch time: 08044.90727886 Element set: 0425 Inclination: 082.5560 deg RA of node: 192.1625 deg Eccentricity: 0.0012760 Arg of perigee: 329.0411 deg Mean anomaly: 030.9963 deg Mean motion: 13.17013592 rev/day Decay rate: 5.1e-07 rev/day^2 Epoch rev: 79322 Checksum: 291
Satellite: MET-2/21 Catalog number: 22782 Epoch time: 08044.82834951 Element set: 0064 Inclination: 082.5458 deg RA of node: 210.2063 deg Eccentricity: 0.0021088 Arg of perigee: 279.3454 deg Mean anomaly: 080.5327 deg Mean motion: 13.83625171 rev/day Decay rate: -2.6e-07 rev/day^2 Epoch rev: 72993 Checksum: 303
Satellite: OKEAN-4 Catalog number: 23317 Epoch time: 08045.68376250 Element set: 506 Inclination: 082.5351 deg RA of node: 070.3075 deg Eccentricity: 0.0022436 Arg of perigee: 169.4615 deg Mean anomaly: 190.7076 deg Mean motion: 14.82577084 rev/day Decay rate: -2.2e-07 rev/day^2 Epoch rev: 71998 Checksum: 306
Satellite: NOAA-14 Catalog number: 23455 Epoch time: 08044.77375550 Element set: 0021 Inclination: 098.9596 deg RA of node: 116.8859 deg Eccentricity: 0.0010191 Arg of perigee: 133.8430 deg Mean anomaly: 226.3582 deg Mean motion: 14.13733370 rev/day Decay rate: -2.20e-06 rev/day^2 Epoch rev: 67677 Checksum: 308
Satellite: SICH-1 Catalog number: 23657 Epoch time: 08045.68900741 Element set: 305 Inclination: 082.5260 deg RA of node: 211.2459 deg Eccentricity: 0.0024352 Arg of perigee: 162.3820 deg Mean anomaly: 197.8224 deg Mean motion: 14.81550643 rev/day Decay rate: 3.6e-07 rev/day^2 Epoch rev: 67193 Checksum: 285
Satellite: NOAA-15 Catalog number: 25338 Epoch time: 08044.90932720 Element set: 0353 Inclination: 098.5492 deg RA of node: 039.9706 deg Eccentricity: 0.0011357 Arg of perigee: 048.0962 deg Mean anomaly: 312.1176 deg Mean motion: 14.24685303 rev/day Decay rate: -9.8e-07 rev/day^2 Epoch rev: 50710 Checksum: 302
Satellite: RESURS Catalog number: 25394 Epoch time: 08045.66724809 Element set: 856 Inclination: 098.4055 deg RA of node: 095.1523 deg Eccentricity: 0.0001070 Arg of perigee: 164.3363 deg Mean anomaly: 195.7847 deg Mean motion: 14.24153248 rev/day Decay rate: -1.1e-07 rev/day^2 Epoch rev: 49886 Checksum: 314
Satellite: FENGYUN1 Catalog number: 25730 Epoch time: 08044.95663592 Element set: 0386 Inclination: 098.7148 deg RA of node: 024.9859 deg Eccentricity: 0.0021272 Arg of perigee: 158.6710 deg Mean anomaly: 201.5349 deg Mean motion: 14.07686156 rev/day Decay rate: 1.95e-06 rev/day^2 Epoch rev: 45148 Checksum: 326
Satellite: OKEAN-0 Catalog number: 25860 Epoch time: 08044.84810990 Element set: 288 Inclination: 097.7426 deg RA of node: 040.9460 deg Eccentricity: 0.0001134 Arg of perigee: 036.0353 deg Mean anomaly: 324.0948 deg Mean motion: 14.73502035 rev/day Decay rate: 4.2e-07 rev/day^2 Epoch rev: 46108 Checksum: 277
Satellite: NOAA-16 Catalog number: 26536 Epoch time: 08044.88869612 Element set: 0806 Inclination: 099.1480 deg RA of node: 031.3991 deg Eccentricity: 0.0010084 Arg of perigee: 211.2520 deg Mean anomaly: 148.8074 deg Mean motion: 14.12467424 rev/day Decay rate: -1.25e-06 rev/day^2 Epoch rev: 38122 Checksum: 292
Satellite: NOAA-17 Catalog number: 27453 Epoch time: 08044.82145280 Element set: 0806 Inclination: 098.5494 deg RA of node: 112.9741 deg Eccentricity: 0.0012710 Arg of perigee: 110.1367 deg Mean anomaly: 250.1182 deg Mean motion: 14.23948438 rev/day Decay rate: -2.4e-07 rev/day^2 Epoch rev: 29310 Checksum: 281
Satellite: NOAA-18 Catalog number: 28654 Epoch time: 08044.83000279 Element set: 0317 Inclination: 098.8568 deg RA of node: 347.3683 deg Eccentricity: 0.0013797 Arg of perigee: 308.2653 deg Mean anomaly: 051.7300 deg Mean motion: 14.11136654 rev/day Decay rate: 2.64e-06 rev/day^2 Epoch rev: 14093 Checksum: 309
/EX SB KEPS @ AMSAT $ORB08045.M Orbital Elements 08045.MISC
HR AMSAT ORBITAL ELEMENTS FOR MANNED AND MISCELLANEOUS SATELLITES FROM WA5QGD FORT WORTH,TX February 14, 2008 Send Subscribe/unsubscribe to KEPS at http://www.amsat.org/mailman/listinfo/keps BID: ORB08045.M TO ALL RADIO AMATEURS BT
Satellite: HUBBLE Catalog number: 20580 Epoch time: 08044.28668243 Element set: 0072 Inclination: 028.4686 deg RA of node: 057.8271 deg Eccentricity: 0.0004129 Arg of perigee: 139.9962 deg Mean anomaly: 220.0932 deg Mean motion: 15.00336558 rev/day Decay rate: 3.48e-06 rev/day^2 Epoch rev: 77620 Checksum: 298
Satellite: UARS Catalog number: 21701 Epoch time: 08044.91838600 Element set: 0301 Inclination: 056.9759 deg RA of node: 343.1709 deg Eccentricity: 0.0081168 Arg of perigee: 302.0178 deg Mean anomaly: 057.3011 deg Mean motion: 15.50576522 rev/day Decay rate: 6.208e-05 rev/day^2 Epoch rev: 90321 Checksum: 273
Satellite: PO-34 Catalog number: 25520 Epoch time: 08044.93654621 Element set: 0932 Inclination: 028.4600 deg RA of node: 290.5913 deg Eccentricity: 0.0005271 Arg of perigee: 010.9585 deg Mean anomaly: 349.1121 deg Mean motion: 15.17132111 rev/day Decay rate: 5.45e-06 rev/day^2 Epoch rev: 51427 Checksum: 266
Satellite: ISS Catalog number: 25544 Epoch time: 08046.07934068 Element set: 922 Inclination: 051.6360 deg RA of node: 291.0182 deg Eccentricity: 0.0005713 Arg of perigee: 044.9489 deg Mean anomaly: 042.0622 deg Mean motion: 15.78232706 rev/day Decay rate: -3.669e-05 rev/day^2 Epoch rev: 52910 Checksum: 293
Satellite: OO-38 Catalog number: 26063 Epoch time: 08044.83589622 Element set: 0137 Inclination: 100.2077 deg RA of node: 096.9155 deg Eccentricity: 0.0036796 Arg of perigee: 199.4022 deg Mean anomaly: 160.5740 deg Mean motion: 14.35827325 rev/day Decay rate: -3.1e-07 rev/day^2 Epoch rev: 42172 Checksum: 303
Satellite: UWE-1 Catalog number: 28892 Epoch time: 08044.73072745 Element set: 0976 Inclination: 098.1095 deg RA of node: 301.2517 deg Eccentricity: 0.0018454 Arg of perigee: 078.3155 deg Mean anomaly: 282.0144 deg Mean motion: 14.59592411 rev/day Decay rate: 1.78e-06 rev/day^2 Epoch rev: 12244 Checksum: 306
Satellite: CO-58 Catalog number: 28895 Epoch time: 08044.70215326 Element set: 0948 Inclination: 098.1136 deg RA of node: 301.5315 deg Eccentricity: 0.0019014 Arg of perigee: 079.4917 deg Mean anomaly: 280.8433 deg Mean motion: 14.59634733 rev/day Decay rate: 1.74e-06 rev/day^2 Epoch rev: 12232 Checksum: 311
Satellite: NCUBE2 Catalog number: 28897 Epoch time: 08044.68110962 Element set: 477 Inclination: 098.1113 deg RA of node: 301.4489 deg Eccentricity: 0.0018229 Arg of perigee: 079.6836 deg Mean anomaly: 280.6448 deg Mean motion: 14.59802501 rev/day Decay rate: 1.28e-06 rev/day^2 Epoch rev: 11460 Checksum: 315
Satellite: FCAL Catalog number: 29667 Epoch time: 08045.88057851 Element set: 751 Inclination: 051.6299 deg RA of node: 251.3016 deg Eccentricity: 0.0008706 Arg of perigee: 216.8535 deg Mean anomaly: 143.1870 deg Mean motion: 16.01706291 rev/day Decay rate: 4.9040e-04 rev/day^2 Epoch rev: 6670 Checksum: 303
Satellite: FALCON Catalog number: 30776 Epoch time: 08044.75246481 Element set: 0260 Inclination: 035.4321 deg RA of node: 188.1043 deg Eccentricity: 0.0001785 Arg of perigee: 344.6798 deg Mean anomaly: 015.3864 deg Mean motion: 15.02877839 rev/day Decay rate: 3.83e-06 rev/day^2 Epoch rev: 05141 Checksum: 300
Satellite: MAST Catalog number: 31126 Epoch time: 08044.77085092 Element set: 0256 Inclination: 098.0541 deg RA of node: 114.0977 deg Eccentricity: 0.0095083 Arg of perigee: 358.1447 deg Mean anomaly: 001.9373 deg Mean motion: 14.53398838 rev/day Decay rate: 3.3e-07 rev/day^2 Epoch rev: 04394 Checksum: 304
Satellite: CAPE1 Catalog number: 31130 Epoch time: 08044.73415967 Element set: 0245 Inclination: 098.0531 deg RA of node: 113.3567 deg Eccentricity: 0.0102862 Arg of perigee: 000.3360 deg Mean anomaly: 359.7883 deg Mean motion: 14.51930907 rev/day Decay rate: 9.3e-07 rev/day^2 Epoch rev: 04366 Checksum: 284
/EX